Window Rock, AZ

10:24 AM MST on December 07, 2016 (GMT -0700)
Window Rock

Weather History for KRQE - December, 2011

Change the Weather History Date:

Monday, December 5, 2011

  Actual Average Record
Temperature  
Mean Temperature 10 °F -  
Max Temperature 23 °F 47 °F 70 °F (1989)
Min Temperature -2 °F 18 °F -6 °F (1952)
Degree Days  
Heating Degree Days 54    
Moisture  
Dew Point 10 °F    
Average Humidity 82    
Maximum Humidity 93    
Minimum Humidity 60    
Precipitation  
Precipitation 0.03 in - - ()
Sea Level Pressure  
Sea Level Pressure 30.16 in    
Wind  
Wind Speed 3 mph (NE)    
Max Wind Speed 8 mph    
Max Gust Speed -    
Visibility 7 miles    
Events Fog , Snow    
Averages and records for this station are not official NWS values.
T = Trace of Precipitation, MM = Missing Value Source: NWS Daily Summary

Daily Weather History Graph

Daily Weather History Graph

Search for Another Location

Airport or City:

Trip Planner

Search our weather history database for the weather conditions in past years. The results will help you decide how hot, cold, wet, or windy it might be!

Date:

Astronomy

Dec. 05, 2011 Rise Set
Actual Time 7:10 AM MST 5:02 PM MST
Civil Twilight 6:42 AM MST 5:30 PM MST
Nautical Twilight 6:10 AM MST 6:02 PM MST
Astronomical Twilight 5:40 AM MST 6:33 PM MST
Moon 1:56 PM MST (12/5) 2:42 AM MST (12/5)
Length of Visible Light 10h 48m
Length of Day
9h 51m
Waxing Gibbous, 80% of the Moon is Illuminated
Dec 5
Waxing Gibbous
Dec 10
Full
Dec 17
Last Quarter
Dec 24
New
Dec 31
First Quarter

Hourly Weather History & Observations

Time (MST) Temp. Windchill Dew Point Humidity Pressure Visibility Wind Dir Wind Speed Gust Speed Precip Events Conditions
12:53 AM 12.0 °F - 10.0 °F 92% 30.05 in 10.0 mi Calm Calm - N/A   Clear
1:53 AM 12.0 °F - 9.0 °F 88% 30.05 in 10.0 mi Calm Calm - N/A   Clear
2:53 AM 10.0 °F - 7.0 °F 87% 30.08 in 10.0 mi Calm Calm - N/A   Clear
3:53 AM 3.9 °F -3.4 °F 1.0 °F 88% 30.12 in 10.0 mi South 3.5 mph - N/A   Scattered Clouds
4:53 AM 3.0 °F - 1.0 °F 91% 30.13 in 10.0 mi Calm Calm - N/A   Clear
5:53 AM 10.0 °F -0.9 °F 6.1 °F 84% 30.12 in 10.0 mi North 6.9 mph - N/A   Overcast
6:53 AM 7.0 °F - 3.0 °F 84% 30.17 in 10.0 mi Calm Calm - N/A   Mostly Cloudy
7:53 AM 5.0 °F - 1.9 °F 87% 30.21 in 10.0 mi Calm Calm - N/A   Clear
8:53 AM 10.9 °F 0.2 °F 6.1 °F 81% 30.19 in 10.0 mi North 6.9 mph - N/A   Clear
9:53 AM 18.0 °F 11.1 °F 10.0 °F 71% 30.17 in 10.0 mi North 4.6 mph - N/A   Clear
10:53 AM 21.0 °F 12.4 °F 12.9 °F 71% 30.14 in 10.0 mi East 6.9 mph - N/A   Overcast
11:21 AM 21.2 °F 12.6 °F 12.2 °F 68% 30.09 in 10.0 mi Variable 6.9 mph - N/A   Overcast
11:30 AM 21.2 °F 11.7 °F 12.2 °F 68% 30.08 in 10.0 mi SE 8.1 mph - N/A   Overcast
11:53 AM 21.9 °F 14.5 °F 12.9 °F 68% 30.15 in 9.0 mi NNE 5.8 mph - 0.00 in   Overcast
12:02 PM 21.2 °F 12.6 °F 12.2 °F 68% 30.07 in 10.0 mi NE 6.9 mph - N/A   Overcast
12:53 PM 23.0 °F 14.7 °F 12.0 °F 63% 30.13 in 10.0 mi Variable 6.9 mph - 0.00 in   Overcast
1:53 PM 23.0 °F 18.4 °F 10.9 °F 60% 30.13 in 10.0 mi South 3.5 mph - N/A   Overcast
2:53 PM 23.0 °F 15.8 °F 12.0 °F 63% 30.14 in 10.0 mi East 5.8 mph - N/A   Clear
3:53 PM 23.0 °F - 12.0 °F 63% 30.18 in 10.0 mi Calm Calm - N/A   Overcast
4:11 PM 21.2 °F 13.6 °F 15.8 °F 80% 30.08 in 2.5 mi NW 5.8 mph - 0.00 in Snow Light Snow
4:21 PM 19.4 °F 12.8 °F 17.6 °F 93% 30.08 in 1.0 mi WNW 4.6 mph - 0.00 in Snow Light Snow
4:23 PM 19.4 °F 12.8 °F 17.6 °F 93% 30.08 in 0.8 mi WNW 4.6 mph - 0.00 in Snow Light Snow
4:43 PM 19.4 °F - 15.8 °F 86% 30.08 in 1.0 mi Calm Calm - 0.00 in Snow Light Snow
4:53 PM 19.9 °F - 16.0 °F 85% 30.22 in 0.8 mi Calm Calm - 0.01 in Snow Light Snow
5:12 PM 19.4 °F 12.8 °F 15.8 °F 86% 30.09 in 0.2 mi East 4.6 mph - 0.00 in Fog , Snow Snow
5:27 PM 19.4 °F 14.3 °F 15.8 °F 86% 30.10 in 0.5 mi ENE 3.5 mph - 0.01 in Fog , Snow Snow
5:41 PM 19.4 °F 11.5 °F 15.8 °F 86% 30.10 in 1.2 mi ENE 5.8 mph - 0.02 in Snow Light Snow
5:53 PM 18.0 °F 11.1 °F 15.1 °F 88% 30.23 in 1.2 mi ENE 4.6 mph - 0.02 in Snow Light Snow
6:12 PM 17.6 °F 8.2 °F 14.0 °F 86% 30.11 in 3.0 mi East 6.9 mph - 0.00 in Snow Light Snow
6:19 PM 17.6 °F 10.7 °F 14.0 °F 86% 30.12 in 7.0 mi East 4.6 mph - 0.00 in   Overcast
6:53 PM 17.1 °F 8.7 °F 14.0 °F 88% 30.27 in 3.0 mi East 5.8 mph - 0.00 in Snow Light Snow
7:05 PM 17.6 °F 9.3 °F 14.0 °F 86% 30.13 in 3.0 mi East 5.8 mph - 0.00 in Snow Light Snow
7:44 PM 12.2 °F 6.1 °F 10.4 °F 92% 30.15 in 10.0 mi NW 3.5 mph - 0.00 in   Overcast
7:53 PM 12.0 °F - 10.0 °F 92% 30.32 in 10.0 mi Calm Calm - 0.00 in   Mostly Cloudy
8:53 PM 5.0 °F - 3.0 °F 92% 30.34 in 10.0 mi Calm Calm - N/A   Clear
9:14 PM 5.0 °F - 3.2 °F 92% 30.17 in 8.0 mi Calm Calm - N/A   Clear
9:53 PM -0.0 °F - -2.9 °F 88% 30.34 in 9.0 mi Calm Calm - N/A   Clear
10:53 PM -2.9 °F - -6.0 °F 87% 30.35 in 10.0 mi Calm Calm - N/A   Clear
11:53 PM -2.0 °F - -6.0 °F 83% 30.34 in 10.0 mi Calm Calm - N/A   Clear